STARLINK-37551, 68907

Orbit data source: Space-Track

STARLINK-37551, 68907 is a payload satellite owned by SpaceX/Seattle (US) in SSO that was launched on Thu, 30 Apr 2026 UTC via an FALCON 9 launch vehicle from the Air Force Western Test Range (AFWTR). Payload-class satellites include a variety of spacecraft equipped with specific instruments for various scientific and technological missions. These include communications satellites like Starlink; space stations such as the ISS; scientific satellites like the Hubble; Earth observation satellites from companies like Planet Labs, Umbra, and HawkEye 360; GPS; miniature CubeSats for education and research; and military/defense satellites.

Loading next visibility...
Identifier
68907, 2026-097N
Orbit
SSO
Country
Flag of USUS
Related business
Manufacturer
SpaceX/Seattle
Mission
Operational spacecraft
Bus & Motor
STARLINK V2MO, Unknown motor
Mass
575 kg wet, ~530 kg dry
Launch date (UTC)
2026-04-30 (2 months ago)
Launch vehicle
FALCON 9
Launch site
Air Force Western Test Range (AFWTR)
Object type
Payload
Rocket body
Debris
Shape & HBR
Unknown shape, 14.5 m
Radar Cross Section
Large (>1 m²)

Expand to show TLE details & history
Last TLE update: 9 hours ago

TLE from 9 hours ago
0 STARLINK-37551
1 68907U 26097N   26171.46201824  .00018542  00000-0  57497-3 0  9993
2 68907  97.2850   6.8611 0002581  89.1759 270.9779 15.33458384  7989
Epoch: 2026-06-20T11:05Z
TLE epoch observation values (Epoch: 2026-06-20T11:05:18.375Z)
Latitude
-0.0001°
Longitude
-68.14175°
Altitude
468.586 km
Speed
7.632 km/s
True Right ascension
00h 27m 26s
True Declination
0° 00' 00"
Sunlit
Object was in daylight at epoch
Visualization orbit readout
Latitude
Unknown
Longitude
Unknown
Altitude
Unknown
Speed
Unknown
Apparent Right ascension
Unknown
Apparent Declination
Unknown
Sunlit
N/A
Visualization observer readout
Local Sidereal Time
07:19:01
Azimuth
Unknown
Elevation
Unknown
Doppler factor
Unknown
Orbital elements
Apogee altitude
464.212 km
Perigee altitude
460.681 km
Semi-major axis
6,840.583 km
Eccentricity
0.00026
Inclination
97.285°
RAAN
6.8611°
Arg. of periapsis
89.1759°
True anomaly
270.94833°
Mean anomaly
270.9779°
Eccentric anomaly
270.96311°
Mean motion
3.83622 °/min
Orbital period
93.84 mins
BSTAR
0.00057497
Loading maneuver chart data...
Computing Atmospheric mass density...
Loading historical data...
Loading historical data...
Loading historical data...
Loading historical data...
Loading historical data...
Loading historical data...
Loading historical data...

Documentation

Showing up to 5 results
|